Regional Weather Roundup
Issued by NWS Grand Forks, ND

Home | Current Version | Previous Version | Graphics & Text | Print | Product List | Glossary On
Versions: 1 2 3 4 5 6 7 8 9 10 11 12 13 14 15 16 17 18 19 20 21 22 23 24 25 26 27 28 29 30 31 32 33 34 35 36 37 38 39 40 41 42 43 44 45 46 47 48 49 50
000
ASUS43 KFGF 220331
RWRFGF
PRAIRIE TO PINES  WEATHER ROUNDUP
NATIONAL WEATHER SERVICE EASTERN NORTH DAKOTA/GRAND FORKS ND
1000 PM CDT MON JUL 21 2014

 **SATELLITE DATA USED TO AUGMENT SKY COVER AT AUTOMATED STATIONS**
 *****  WEATHER ACROSS EASTERN NORTH DAKOTA  *****

CITY           SKY/WX    TMP DP  RH WIND       PRES   REMARKS
GRAND FORKS    TSTM      66  64  94 N43G51    29.71F FOG
GRAND FRKS AFB RAIN      66  66 100 NE25      29.69F FOG
GRAND FRKS NWS   N/A     66 N/A N/A NE24        N/A
DEVILS LAKE    CLOUDY    64  61  88 NE15G21   29.80S
FARGO          LGT RAIN  68  65  90 W6        29.75S FOG
WAHPETON ARPT  CLOUDY    66  63  88 NW9       29.81R
$$

 ***** WEATHER ACROSS CENTRAL AND WESTERN NORTH DAKOTA  *****

CITY           SKY/WX    TMP DP  RH WIND       PRES   REMARKS
BISMARCK       CLOUDY    67  63  87 N6        29.88R
MINOT          CLOUDY    65  62  90 NW7       29.92R
JAMESTOWN      LGT RAIN  68  64  87 N26G39    29.75R
MINOT AFB      CLOUDY    66  66  99 N5        29.91R
GARRISON         N/A     65  63  93 NW3       29.92R
WILLISTON      MOCLDY    71  58  63 E5        29.96R
DICKINSON      PTCLDY    63  60  90 NE7       29.96R
HETTINGER      CLEAR     67  61  81 N14G21    29.96R
$$

 *****  OTHER AIRPORT OBSERVATIONS IN OUR AREA  *****

CITY           SKY/WX    TMP DP  RH WIND       PRES   REMARKS
WALHALLA         N/A     64  64 100 N7          N/A
GRAFTON AIRPOR HVY RAIN  64  64 100 NE18      29.81R
VALLEY CITY AR LGT RAIN  66  66 100 NW20G26   29.78R
CANDO          LGT RAIN  64  63  94 N9        29.84F
CAVALIER APRT  LGT RAIN  66  64  94 NE7       29.83R
GWINNER          N/A     68  68 100 W5        29.81R
ROLLA          FAIR      61  61 100 N7        29.89F
 ***** THE ABOVE OBSERVATIONS ARE NON NWS ARE NOT QUALITY
       CONTROLLED AND MAY MIS-REPORT RAIN FOR SNOW...
$$

  *****  WEATHER ACROSS NORTHERN MINNESOTA  *****

CITY           SKY/WX    TMP DP  RH WIND       PRES   REMARKS
FLAG ISLAND    CLOUDY    70  64  83 NE23G29   29.77F
WARROAD        CLOUDY    70  66  88 VRB17G33  29.75S
ROSEAU         TSTM      66  61  82 N10       29.79R
HALLOCK        RAIN      66  64  94 NE13G21   29.83S
THF RVR FALLS  CLOUDY    68  66  94 N16G24    29.78R THUNDER
BAUDETTE       HVY RAIN  67  65  93 NW25G33   29.67F FOG
WASKISH        CLOUDY    81  73  78 SE12G20   29.67F
CROOKSTON      NOT AVBL
$$
  *****  WEATHER ACROSS CENTRAL AND WEST MINNESOTA  *****

CITY           SKY/WX    TMP DP  RH WIND       PRES   REMARKS
FOSSTON        TSTM      64  63  94 W14G39    29.82R
BEMIDJI        CLOUDY    82  74  79 S9        29.74R
PARK RAPIDS    CLOUDY    82  75  79 S15G25    29.74R
ELBOW LAKE     CLOUDY    79  74  84 S13       29.75R
WADENA         CLOUDY    79  72  78 SW10      29.78R
DETROIT LAKES  RAIN      66  64  94 NW22G31   29.88R
MOORHEAD       TSTM      70  70 100 E3        29.78S
FERGUS FALLS   CLOUDY    68  66  94 NW18G25   29.81R
MORRIS MN      CLOUDY    79  75  89 S9        29.73R
STAPLES        CLOUDY    81  72  74 S15G22    29.76R
$$
  *****  WEATHER ELSEWHERE ACROSS MINNESOTA  *****

CITY           SKY/WX    TMP DP  RH WIND       PRES   REMARKS
DULUTH         MOCLDY    81  72  74 SE10      29.83S
INTRNTL FALLS  MOCLDY    77  73  87 E5        29.75F
ELY            CLEAR     79  70  73 SE8       29.82F
CLOQUET        CLOUDY    81  72  74 SE8       29.81F
WHEATON        TSTM      70  64  83 W12G28    29.85R
BRAINERD       LGT RAIN  81  74  79 S12G22    29.77S
HIBBING        MOCLDY    81  74  79 SE8       29.79F
ALEXANDRIA     CLOUDY    80  73  79 S13G25    29.79R
SAINT CLOUD    CLOUDY    82  73  74 S9        29.79R
MINNEAPOLIS    PTCLDY    83  74  74 SE14      29.81F
$$

  *****  WEATHER ACROSS SOUTH DAKOTA  *****

CITY           SKY/WX    TMP DP  RH WIND       PRES   REMARKS
SIOUX FALLS    PTCLDY    84  77  79 S13       29.78R HX  94
BROOKINGS      NOT AVBL
WATERTOWN      CLEAR     79  76  90 SW12      29.77R
HURON          CLEAR     81  68  64 NW5       29.76R
SISSETON         N/A     75  62  64 NW33G67   29.73R
ABERDEEN       MOCLDY    72  65  78 N16       29.80R
MITCHELL       CLEAR     84  79  85 S6        29.76R HX  96
PIERRE         CLEAR     83  70  64 N14       29.81R
MOBRIDGE       CLEAR     69  65  86 NW14      29.83R
RAPID CITY     PTCLDY    76  56  49 N13       29.95R
$$

  *****  SOME WEATHER IN NEARBY STATES *****

CITY           SKY/WX    TMP DP  RH WIND       PRES   REMARKS
GLASGOW MT     PTCLDY    72  54  53 E5        29.97R
GREAT FALLS MT CLEAR     68  46  45 N6        30.04R
CHEYENNE WY    PTCLDY    72  45  37 W9        30.20R
SCOTTSBLUFF NE PTCLDY    72  61  68 E6        30.01R
OMAHA NE       CLOUDY    89  76  65 S13       29.85R HX 100
DES MOINES IA  CLEAR     85  76  74 S13       29.91R HX  94
DAVENPORT IA   CLEAR     78  68  71 S14       30.02R
CHICAGO IL     CLEAR     76  63  64 S8        30.06S
EAU CLAIRE WI  CLEAR     81  70  69 S15       29.89F
LA CROSSE WI   CLOUDY    83  69  62 SE9       29.93S
$$

  *****  SOME NATIONAL WEATHER *****

CITY           SKY/WX    TMP DP  RH WIND       PRES   REMARKS
LA GUARDIA NY  PTCLDY    74  62  66 S7        30.17S
RALEIGH NC     CLOUDY    73  70  88 SE5       30.17S
ATLANTA GA     CLOUDY    78  72  81 SE6       30.10R
NEW ORLEANS LA PTCLDY    82  72  71 CALM      30.00R
OKLAHOMA CITY  PTCLDY    81  72  74 SE7       30.01R
ALBUQUERQUE NM MOCLDY    88  43  20 VRB6      30.18R
SALT LAKE CITY MOCLDY    88  29  12 S8        30.01R
LOS ANGELES CA PTCLDY    70  61  73 W16       29.99F
BOISE ID       MOCLDY    79  52  38 S7        30.02R
SEATTLE WA     PTCLDY    72  49  44 VRB5      29.99S
$$

*** WEATHER ACROSS MANITOBA...SASKATCHEWAN AND ONTARIO ***
                ***ONTARIO***

CITY           SKY/WX    TMP DP  RH WIND       PRES   REMARKS
GERALDTON      MOCLDY    75  68  78 SW7       29.89R
THUNDER BAY    PTCLDY    61  59  94 NE7       29.87R
SIOUX LOOKOUT  CLOUDY    66  66 100 VRB3      29.89R THUNDER
TORONTO        PTCLDY    73  61  64 SE3       30.12S
BIG TROUT LK   CLOUDY    66  50  55 NW8       29.84R
PICKLE LAKE    NOT AVBL
DRYDEN         TSTM      66  64  94 NE8       29.88F
KENORA         MOCLDY    66  64  94 N6        29.87R
$$
                *** MANITOBA***

CITY           SKY/WX    TMP DP  RH WIND       PRES   REMARKS
BRANDON        MOCLDY    64  64 100 NE5       29.91R
DAUPHIN        CLEAR     66  61  82 VRB2      29.90R
ISLAND LAKE    MOCLDY    66  52  59 N3        29.91R
PILOT MOUND      N/A     61  59  94 E3          N/A
THE PAS        PTCLDY    66  52  59 N5        29.95R
THOMPSON       MOCLDY    55  50  82 NE6       29.99R
WINNIPEG       LGT RAIN  66  61  82 E5        29.84R
LYNN LAKE      MOCLDY    57  50  77 N6        30.00R
CHURCHILL      PTCLDY    50  45  81 W5        29.93
GILLAM         CLOUDY    54  46  76 N6        29.95R
$$
                ***SASKATCHEWAN***

CITY           SKY/WX    TMP DP  RH WIND       PRES   REMARKS
ESTEVAN        MOCLDY    66  63  88 CALM      29.97R
KINDERSLEY     PTCLDY    63  57  82 N5        30.02R
LLOYDMINSTER   PTCLDY    63  50  63 W2        30.01R
PRINCE ALBERT  MOCLDY    64  59  82 CALM      29.97R
REGINA         MOCLDY    66  57  72 E3        29.98R
YORKTON        CLEAR     64  57  77 NW3       29.96R
N. BATTLEFORD  CLOUDY    66  57  72 VRB2      30.03R
LA RONGE       PTCLDY    63  48  59 CALM      29.98R
SASKATOON      MOCLDY    64  55  72 NE5       30.00R
SWIFT CURRENT  MOCLDY    59  57  94 E8        30.00R
$$
NOTE: THESE ARE AUTOMATED STATIONS WITH LIMITED QUALITY CONTROL
      "FAIR" INDICATES FEW OR NO CLOUDS BELOW 12,000 FEET WITH NO
      SIGNIFICANT WEATHER AND/OR OBSTRUCTIONS TO VISIBILITY.
      SKY/WX - SKY CONDITION AND SIGNIFICANT WEATHER.
      TMP - AIR TEMPERATURE.    DP   - DEWPOINT TEMPERATURE.
      RH  - RELATIVE HUMIDITY.  PRES - PRESSURE.
      HX  - HEAT INDEX.         WCI  - WIND CHILL INDEX.
$



USA.gov is the U.S. government's official web portal to all federal, state and local government web resources and services.